FENGYUN 1C DEB

Satellite information

Favourite Embed

Satellite Type and Status

DEBRISIN ORBIT

Key statistics

Satellite FENGYUN 1C DEB at a glance.

Uptime

9715

Days in orbit

Revolutions

≈ 14.5

Per day

Orbit

SSO

Sun Synchronous Orbit

Inclination

99.0

Latest

Satellite identification and parameters

Extended collection of information and parameters for FENGYUN 1C DEB.

Object identification

Identified? True

Debris? True

Object name: FENGYUN 1C DEB

International designator: 1999-025AVY

Object number (NORAD): 30838

Object ID (CCSDS): 30838

Country: PEOPLES REPUBLIC OF CHINA (PRC)

Current information (Y/N): Y

RCS size: SMALL

Orbital parameters

Period: 99.466 minutes

Inclination: 99.0419 deg

SMA: 7111.222 km

Apoapsis: 757.261 km

Periapsis: 708.912 km

RAAN: 260.0468 deg

Eccentricy: 0.00339952

Argument of periapsis: 159.9402 deg

Mean anomaly: 200.3133 deg

Mean motion: 14.4772619 rev/day

Mean motion (dot): 0.00014863 rev/day2

B* drag term: 0.004001407 1/REarth

Two-line elements (TLE)

Creation date: Dec. 12, 2025, 10:14 a.m.

Reference frame: TEME

Reference center: EARTH

Epoch: Dec. 12, 2025, 5:06 a.m. UTC

TLE line 0: 0 FENGYUN 1C DEB

TLE line 1: 1 30838U 99025AVY 25346.21265873 .00014863 00000-0 40014-2 0 9994

TLE line 2: 2 30838 99.0419 260.0468 0033995 159.9402 200.3133 14.47726190973069

Live tracking on map

Real-time ground track for satellite FENGYUN 1C DEB.

In-orbit conjunctions

A list of the most updated potential collisions computed for object FENGYUN 1C DEB.

Target Orbit TCA Probability of collision Miss distance Type
DELTA 1 DEB SSO 2025-08-16 12:03:16 0.0002079475 289.0 (m) DEBRIS
CZ-4B DEB SSO 2025-06-05 00:19:26 0.0004433212 18.0 (m) DEBRIS
NOAA 16 DEB SSO 2024-09-25 18:42:12 0.0002099051 212.0 (m) DEBRIS

Associated space launch

Chinese polar orbiting meteorological satellite

FENGYUN 1C DEB was lifted into orbit during the mission ‘Long March 4B | Feng Yun 1C’, on board a Long March 4B space rocket.

The launch took place on May 10, 1999, 1:33 a.m. from Launch Complex 7.

For more information about the launch, click the button.

Launch to space Long March 4B | Feng Yun 1C
Long March 4B | Feng Yun 1C

Agency: N/A

Status: Launch Successful

Launch date: May 10, 1999, 1:33 a.m. UTC

Rocket: Long March 4B

Launch pad: Launch Complex 7

Location: Taiyuan Satellite Launch Center, People's Republic of China

...

Latest news about this satellite

There are no fresh news available about this satellite. Check back as we update our databases every day.


Newsletter sign-up

Weekly statistics, charts and insights to help you stay on top of the space industry.